[[{"header":{"parameterUnit":"m.s-1","parameterCategory":1,"la1":30.2991,"la2":30.254,"lo1":-89.0895,"lo2":-89.0444,"dy":0.0017,"dx":0.0017,"nx":28,"ny":28,"refTime":"2024-12-01T09:00:00:Z","depth":0,"parameterNumber":2,"parameterNumberName":"U-component_of_WINDS"},"data":[0,0,0,0,0,0,0,0,0,0,0,0,0,0,0,0,0,0,0,0,0,0,0,0,0,0,0,0,0,0,0,0,0,0,0,0,0,0,0,0,0,0,0,0,0,0,0,0,0,0,0,0,0,0,0,0,0,0,-3.3137,-3.3138,0,-3.3179,-3.3179,-3.318,-3.3088,-3.3085,-3.3082,-3.3079,-3.3121,-3.3125,-3.3129,0,0,0,0,0,0,0,0,0,0,0,0,0,-3.2979,-3.2982,-3.3137,-3.3138,-3.3138,-3.3179,-3.3179,-3.318,-3.3088,-3.3085,-3.3081,-3.3078,-3.312,-3.3124,-3.3129,0,0,0,0,0,0,0,0,0,0,0,0,0,-3.3037,-3.2983,-3.3137,-3.3098,-3.3095,-3.3178,-3.3179,-3.318,-3.3089,-3.3085,-3.308,-3.3076,-3.3118,-3.3124,-3.313,-3.3254,0,0,-3.3147,-3.315,0,0,0,0,0,0,0,0,-3.3034,-3.3043,-3.3103,-3.3101,-3.3097,-3.3124,-3.3138,-3.3205,-3.309,-3.3091,-3.3079,-3.3074,-3.3125,-3.313,-3.3148,-3.3256,-3.3257,-3.3148,-3.3151,-3.3154,-3.3155,0,0,0,0,0,0,0,-3.303,-3.304,-3.3154,-3.3104,-3.3101,-3.3078,-3.3081,-3.3151,-3.3133,-3.3091,-3.3084,-3.309,-3.3123,-3.3142,-3.3148,-3.3258,-3.3148,-3.3153,-3.3156,-3.3159,-3.347,-3.3474,0,0,0,0,0,0,-3.3031,-3.3038,-3.3152,-3.3155,-3.3054,-3.3084,-3.3088,-3.312,-3.3132,-3.3129,-3.3094,-3.3086,-3.3135,-3.3141,-3.3149,-3.3296,-3.3154,-3.3159,-3.3162,-3.3465,-3.3471,-3.3476,0,0,0,0,0,0,-3.3028,-3.3042,-3.3151,-3.3095,-3.3107,-3.3092,-3.3128,-3.3123,-3.3142,-3.3134,-3.313,-3.3117,-3.3131,-3.3141,-3.3228,-3.3296,-3.3162,-3.3167,-3.3459,-3.3467,-3.3474,-3.359,0,0,0,0,0,0,-3.3024,-3.3041,-3.3089,-3.3096,-3.311,-3.323,-3.3132,-3.3127,-3.3152,-3.3142,-3.3155,-3.3153,-3.3129,-3.322,-3.3234,-3.3301,-3.3172,-3.3453,-3.3463,-3.3471,-3.358,-3.36,-3.3617,0,0,0,0,0,-3.3018,-3.3119,-3.3091,-3.3106,-3.3169,-3.3234,-3.3242,-3.3212,-3.3158,-3.3205,-3.32,-3.3152,-3.3286,-3.323,-3.3245,-3.3315,-3.3449,-3.346,-3.3471,-3.3571,-3.3596,-3.3617,0,0,0,0,0,0,-3.312,-3.312,-3.3089,-3.3195,-3.3215,-3.3218,-3.3277,-3.3239,-3.3275,-3.3264,-3.3225,-3.3229,-3.3324,-3.3328,-3.3265,-3.3436,-3.3358,-3.3373,-3.343,-3.3453,-3.3471,-3.3469,-3.3176,0,0,0,0,0,-3.3154,-3.3208,-3.3204,-3.3299,-3.3311,-3.3293,-3.332,-3.3295,-3.3314,-3.3322,-3.3323,-3.3344,-3.339,-3.3422,-3.3464,-3.3579,-3.3581,-3.3635,-3.3653,-3.3669,-3.3682,-3.3744,-3.3768,-3.3512,-3.3512,-3.3511,0,0,-3.3227,-3.3233,-3.3269,-3.332,-3.3332,-3.3388,-3.33,-3.3363,-3.3404,-3.3332,-3.3415,-3.3416,-3.3436,-3.3539,-3.3584,-3.3545,-3.3753,-3.3683,-3.3695,-3.37,-3.3757,-3.3782,-3.3803,-3.3519,-3.3518,-3.3516,0,0,-3.3387,-3.3398,-3.3478,-3.3492,-3.3513,-3.35,-3.3519,-3.3528,-3.3527,-3.3609,-3.3556,-3.3604,-3.3685,-3.3702,-3.3721,-3.3888,-3.3845,-3.3903,-3.4001,-3.4062,-3.4082,-3.4099,-3.416,-3.4182,-3.3916,-3.3916,-3.3916,0,-3.3475,-3.3557,-3.3524,-3.359,-3.3614,-3.3551,-3.3632,-3.3648,-3.3681,-3.3699,-3.3655,-3.3755,-3.3764,-3.387,-3.3911,-3.3928,-3.3949,-3.3901,-3.4082,-3.4099,-3.4115,-3.4172,-3.4195,-3.3923,-3.3922,-3.3921,-3.3921,0,-3.3664,-3.3722,-3.3784,-3.3819,-3.3849,-3.3923,-3.39,-3.3935,-3.3908,-3.39,-3.3985,-3.3993,-3.4036,-3.4059,-3.4033,-3.4161,-3.4137,-3.4088,-3.401,-3.4147,-3.42,-3.4221,-3.3933,-3.393,-3.3928,-3.3926,0,0,-3.389,-3.3905,-3.3929,-3.3943,-3.3961,-3.4005,-3.4076,-3.4118,-3.4149,-3.4174,-3.4233,-3.4303,-3.4258,-3.4279,-3.4254,-3.4308,-3.444,-3.4252,-3.4252,-3.4287,-3.4583,-3.462,-3.4646,-3.4412,-3.4416,-3.4419,-3.4581,0,-3.405,-3.4172,-3.4144,-3.4264,-3.4317,-3.4258,-3.432,-3.4337,-3.4332,-3.4376,-3.4369,-3.4419,-3.4356,-3.4369,-3.4419,-3.4414,-3.4499,-3.4401,-3.4466,-3.4469,-3.4464,-3.4673,-3.4713,-3.4865,-3.4601,-3.4605,-3.4607,0,-3.4252,-3.4286,-3.4412,-3.4421,-3.4442,-3.4498,-3.4535,-3.4578,-3.4597,-3.4589,-3.4613,-3.4578,-3.4648,-3.4569,-3.4664,-3.4598,-3.4623,-3.4624,-3.463,-3.4635,-3.4547,-3.4685,-3.4913,-3.4936,-3.464,-3.4637,-3.4635,0,-3.4406,-3.4482,-3.4567,-3.4582,-3.4595,-3.4635,-3.4643,-3.4657,-3.4685,-3.4716,-3.4734,-3.4774,-3.4796,-3.4827,-3.4803,-3.4748,-3.4903,-3.4821,-3.4898,-3.4899,-3.4934,-3.4933,-3.5171,-3.495,-3.4949,-3.4949,-3.4948,0,-3.4588,-3.4667,-3.4636,-3.4689,-3.4776,-3.4743,-3.483,-3.483,-3.4843,-3.4895,-3.4846,-3.4895,-3.4861,-3.4907,-3.4889,-3.4971,-3.4981,-3.4977,-3.4971,-3.4982,-3.4982,-3.4998,-3.4987,-3.4955,-3.4953,-3.4952,-3.4951,0,-3.4774,-3.4756,-3.4846,-3.4851,-3.4854,-3.4918,-3.4922,-3.4971,-3.4961,-3.5027,-3.5041,-3.5026,-3.5078,-3.5057,-3.5112,-3.51,-3.5206,-3.5186,-3.52,-3.5195,-3.5273,-3.5266,-3.553,-3.5563,-3.532,-3.5322,-3.5324,0,-3.4891,-3.4951,-3.4963,-3.4994,-3.5005,-3.5056,-3.5084,-3.5053,-3.5084,-3.511,-3.5156,-3.5203,-3.524,-3.5326,-3.532,-3.5362,-3.5343,-3.5432,-3.5349,-3.5357,-3.5345,-3.5342,-3.5348,-3.5449,-3.5452,-3.5454,-3.5456,0,-3.5102,-3.509,-3.5133,-3.5172,-3.5207,-3.5237,-3.5262,-3.529,-3.526,-3.5298,-3.5351,-3.5379,-3.5435,-3.5484,-3.5521,-3.5528,-3.5488,-3.5482,-3.5502,-3.5514,-3.552,-3.5518,-3.5246,-3.5476,-3.5474,-3.5473,-3.5472,-3.5471,-3.5258,-3.5308,-3.5325,-3.5374,-3.5389,-3.5414,-3.546,-3.5457,-3.55,-3.5544,-3.5523,-3.5585,-3.5601,-3.5647,-3.566,-3.5707,-3.5672,-3.5701,-3.5709,-3.5717,-3.5727,-3.5512,-3.5714,-3.5713,-3.5713,-3.5712,-3.5712,0,-3.5466,-3.5474,-3.5519,-3.5556,-3.5595,-3.5553,-3.5579,-3.5614,-3.5669,-3.5688,-3.5725,-3.5786,-3.5833,-3.583,-3.5873,-3.5912,-3.5894,-3.5924,-3.5921,-3.5924,-3.5756,-3.5734,-3.5937,-3.5937,-3.5937,-3.5937,-3.5937,-3.5937,-3.5579,-3.5663,-3.5654,-3.5745,-3.5751,-3.5811,-3.583,-3.5852,-3.5868,-3.5938,-3.5976,-3.5975,-3.5985,-3.6029,-3.6069,-3.6067,-3.6086,-3.6123,-3.6114,-3.5958,-3.5935,-3.5914,-3.5894,-3.6127,-3.6127,-3.6278,-3.6279,-3.628]},{"header":{"parameterUnit":"m.s-1","parameterCategory":1,"la1":30.2991,"la2":30.254,"lo1":-89.0895,"lo2":-89.0444,"dy":0.0017,"dx":0.0017,"nx":28,"ny":28,"refTime":"2024-12-01T09:00:00:Z","depth":0,"parameterNumber":3,"parameterNumberName":"V-component_of_WINDS"},"data":[0,0,0,0,0,0,0,0,0,0,0,0,0,0,0,0,0,0,0,0,0,0,0,0,0,0,0,0,0,0,0,0,0,0,0,0,0,0,0,0,0,0,0,0,0,0,0,0,0,0,0,0,0,0,0,0,0,0,-2.3316,-2.3316,0,-2.3332,-2.3332,-2.3332,-2.3299,-2.3298,-2.3297,-2.3296,-2.3311,-2.3313,-2.3314,0,0,0,0,0,0,0,0,0,0,0,0,0,-2.3257,-2.3258,-2.3316,-2.3316,-2.3317,-2.3332,-2.3332,-2.3332,-2.3299,-2.3298,-2.3297,-2.3295,-2.3311,-2.3312,-2.3314,0,0,0,0,0,0,0,0,0,0,0,0,0,-2.3279,-2.3259,-2.3316,-2.3302,-2.3301,-2.3332,-2.3332,-2.3332,-2.3299,-2.3298,-2.3296,-2.3295,-2.331,-2.3312,-2.3314,-2.3359,0,0,-2.3321,-2.3322,0,0,0,0,0,0,0,0,-2.3277,-2.3281,-2.3304,-2.3303,-2.3302,-2.3312,-2.3316,-2.3341,-2.33,-2.33,-2.3296,-2.3294,-2.3313,-2.3314,-2.3321,-2.336,-2.3361,-2.3321,-2.3322,-2.3323,-2.3324,0,0,0,0,0,0,0,-2.3276,-2.328,-2.3322,-2.3304,-2.3303,-2.3294,-2.3296,-2.3321,-2.3315,-2.33,-2.3298,-2.33,-2.3312,-2.3319,-2.3321,-2.3361,-2.3321,-2.3323,-2.3324,-2.3325,-2.3436,-2.3438,0,0,0,0,0,0,-2.3276,-2.3279,-2.3322,-2.3323,-2.3285,-2.3297,-2.3298,-2.331,-2.3315,-2.3314,-2.3301,-2.3298,-2.3316,-2.3319,-2.3321,-2.3373,-2.3323,-2.3325,-2.3326,-2.3434,-2.3436,-2.3438,0,0,0,0,0,0,-2.3275,-2.328,-2.3321,-2.33,-2.3305,-2.33,-2.3313,-2.3311,-2.3318,-2.3316,-2.3314,-2.331,-2.3315,-2.3318,-2.335,-2.3373,-2.3326,-2.3328,-2.3432,-2.3435,-2.3437,-2.3478,0,0,0,0,0,0,-2.3274,-2.328,-2.3298,-2.3301,-2.3306,-2.335,-2.3315,-2.3313,-2.3322,-2.3318,-2.3323,-2.3323,-2.3314,-2.3347,-2.3352,-2.3376,-2.333,-2.343,-2.3434,-2.3437,-2.3475,-2.3482,-2.3488,0,0,0,0,0,-2.3272,-2.3309,-2.3299,-2.3304,-2.3328,-2.3351,-2.3354,-2.3344,-2.3324,-2.3341,-2.3339,-2.3322,-2.337,-2.335,-2.3356,-2.338,-2.3429,-2.3433,-2.3436,-2.3472,-2.3481,-2.3488,0,0,0,0,0,0,-2.3309,-2.3309,-2.3298,-2.3337,-2.3345,-2.3346,-2.3367,-2.3353,-2.3366,-2.3362,-2.3348,-2.335,-2.3384,-2.3385,-2.3363,-2.3423,-2.3396,-2.3401,-2.3421,-2.3429,-2.3436,-2.3435,-2.3331,0,0,0,0,0,-2.3322,-2.3341,-2.334,-2.3375,-2.3379,-2.3373,-2.3383,-2.3374,-2.3381,-2.3383,-2.3384,-2.3391,-2.3407,-2.3418,-2.3433,-2.3475,-2.3475,-2.3494,-2.3501,-2.3506,-2.3511,-2.3532,-2.354,-2.3451,-2.3451,-2.3451,0,0,-2.3349,-2.3351,-2.3364,-2.3383,-2.3387,-2.3407,-2.3376,-2.3398,-2.3413,-2.3387,-2.3416,-2.3417,-2.3424,-2.346,-2.3476,-2.3462,-2.3535,-2.3511,-2.3516,-2.3517,-2.3536,-2.3545,-2.3552,-2.3453,-2.3453,-2.3453,0,0,-2.3408,-2.3412,-2.3441,-2.3446,-2.3453,-2.3448,-2.3455,-2.3458,-2.3457,-2.3486,-2.3467,-2.3484,-2.3513,-2.3518,-2.3524,-2.3584,-2.3568,-2.3589,-2.3623,-2.3644,-2.3651,-2.3657,-2.3677,-2.3685,-2.3593,-2.3594,-2.3594,0,-2.344,-2.347,-2.3457,-2.3481,-2.3489,-2.3466,-2.3495,-2.35,-2.3512,-2.3518,-2.3502,-2.3537,-2.354,-2.3577,-2.3591,-2.3598,-2.3604,-2.3588,-2.3651,-2.3657,-2.3662,-2.3682,-2.369,-2.3596,-2.3596,-2.3595,-2.3595,0,-2.3508,-2.3529,-2.3552,-2.3563,-2.3574,-2.36,-2.3591,-2.3603,-2.3593,-2.3589,-2.3619,-2.3622,-2.3636,-2.3644,-2.3635,-2.3679,-2.367,-2.3653,-2.3625,-2.3674,-2.3691,-2.3699,-2.3599,-2.3599,-2.3598,-2.3597,0,0,-2.3592,-2.3596,-2.3604,-2.3608,-2.3614,-2.3629,-2.3654,-2.3668,-2.3678,-2.3687,-2.3706,-2.3731,-2.3714,-2.3722,-2.3712,-2.3731,-2.3776,-2.3711,-2.3711,-2.3722,-2.3824,-2.3837,-2.3846,-2.3766,-2.3767,-2.3768,-2.3823,0,-2.365,-2.3692,-2.3681,-2.3723,-2.3741,-2.3719,-2.374,-2.3746,-2.3743,-2.3758,-2.3754,-2.3771,-2.3749,-2.3753,-2.377,-2.3767,-2.3796,-2.3763,-2.3784,-2.3784,-2.3782,-2.3855,-2.3869,-2.3921,-2.383,-2.3832,-2.3832,0,-2.3723,-2.3734,-2.3777,-2.3779,-2.3786,-2.3805,-2.3816,-2.3831,-2.3836,-2.3833,-2.384,-2.3827,-2.385,-2.3823,-2.3854,-2.3832,-2.3839,-2.3839,-2.3841,-2.3842,-2.3811,-2.3858,-2.3937,-2.3945,-2.3843,-2.3842,-2.3842,0,-2.3779,-2.3804,-2.3833,-2.3838,-2.384,-2.3854,-2.3855,-2.3859,-2.3868,-2.3877,-2.3883,-2.3895,-2.3902,-2.3912,-2.3902,-2.3883,-2.3935,-2.3907,-2.3932,-2.3933,-2.3944,-2.3944,-2.4025,-2.395,-2.395,-2.395,-2.395,0,-2.3844,-2.3872,-2.3858,-2.3876,-2.3905,-2.3892,-2.3922,-2.3921,-2.3924,-2.394,-2.3922,-2.3938,-2.3925,-2.3939,-2.3932,-2.3959,-2.3962,-2.3959,-2.3957,-2.3961,-2.3961,-2.3966,-2.3962,-2.3952,-2.3951,-2.3951,-2.3951,0,-2.3912,-2.3904,-2.3934,-2.3933,-2.3933,-2.3955,-2.3954,-2.397,-2.3966,-2.3987,-2.3991,-2.3984,-2.4,-2.3991,-2.4008,-2.4003,-2.4038,-2.4031,-2.4036,-2.4034,-2.406,-2.4058,-2.4147,-2.4158,-2.4076,-2.4077,-2.4078,0,-2.3954,-2.3974,-2.3975,-2.3985,-2.3988,-2.4004,-2.4012,-2.4,-2.4009,-2.4016,-2.4031,-2.4045,-2.4056,-2.4083,-2.4079,-2.4092,-2.4085,-2.4115,-2.4086,-2.4089,-2.4084,-2.4083,-2.4085,-2.4121,-2.4122,-2.4123,-2.4123,0,-2.4029,-2.4024,-2.4037,-2.4048,-2.4059,-2.4067,-2.4074,-2.4083,-2.407,-2.4082,-2.4098,-2.4107,-2.4123,-2.4138,-2.4148,-2.4149,-2.4134,-2.4132,-2.4139,-2.4143,-2.4145,-2.4143,-2.4051,-2.413,-2.413,-2.4129,-2.4129,-2.4128,-2.4084,-2.4101,-2.4104,-2.4119,-2.4122,-2.4129,-2.4144,-2.414,-2.4154,-2.4166,-2.4158,-2.4177,-2.418,-2.4192,-2.4195,-2.4209,-2.4197,-2.4207,-2.4209,-2.4212,-2.4215,-2.4143,-2.4211,-2.4211,-2.4211,-2.4211,-2.4211,0,-2.4158,-2.4159,-2.4172,-2.4182,-2.4193,-2.4178,-2.4184,-2.4195,-2.4212,-2.4216,-2.4227,-2.4245,-2.4258,-2.4255,-2.4267,-2.4279,-2.4272,-2.4283,-2.4281,-2.4282,-2.4226,-2.4218,-2.4288,-2.4288,-2.4288,-2.4288,-2.4288,-2.4288,-2.4198,-2.4224,-2.4219,-2.4247,-2.4248,-2.4266,-2.4271,-2.4276,-2.4279,-2.43,-2.4311,-2.4309,-2.431,-2.4322,-2.4333,-2.4332,-2.4337,-2.435,-2.4346,-2.4293,-2.4286,-2.4279,-2.4272,-2.4351,-2.4351,-2.4401,-2.4401,-2.4402]}]]